Orbital Elements
The following orbital elements are taken from MPC 66204:
Epoch 2009 Jan. 9.0 TT = JDT 2454840.5
T 2009 Jan. 23.9108 TT MPC
q 1.646287 (2000.0) P Q
n 0.1601741 Peri. 337.6208 +0.7990432 -0.5922187
a 3.357952 Node 59.1104 +0.5683786 +0.6875507
e 0.509735 Incl. 6.9578 +0.1961523 +0.4201797
P 6.15
From 134 observations 2008 Nov. 30-2009 Apr. 13, mean residual 0".7.
|